User: anonymous   Login
Location: Caltech
(34.1382°N, 118.1253°W)
Time: 20:02:02
(UTC-07:00)
Language:

Cosmos 44 Rocket - Orbit

View from above orbital plane
View from above orbital plane
View from above satellite
View from above satellite

Ground track
Ground track

The orbit data is extracted from the following two-line orbital elements,

1 00877U 64053B   14295.14446087  .00000498  00000-0  12874-3 0  7607
2 00877 065.0796 243.2233 0054892 142.8432 217.6487 14.58917682660129
Epoch (UTC): 22 October 2014 03:28:01
Eccentricity: 0.0054892
inclination: 65.0796°
perigee height: 658 km
apogee height: 735 km
right ascension of ascending node: 243.2233°
argument of perigee: 142.8432°
revolutions per day: 14.58917682
mean anomaly at epoch: 217.6487°
orbit number at epoch: 66012

The dashed part of the orbit path shows where the satellite is in the earth's shadow,  

DLR